Tracking 30970 objects as of 3-Jul-2025
HD Live streaming from Space Station
objects crossing your sky now

SL-12 R/B(AUX MOTOR)

Track SL-12 R/B(AUX MOTOR) now!
10-day predictions


NORAD ID: 32280
Int'l Code: 2007-052F
Perigee: 747.5 km
Apogee: 18,866.2 km
Inclination: 65.4 °
Period: 341.3 minutes
Semi major axis: 16177 km
RCS: 0.553 m2 (medium)
Launch date: October 26, 2007
Source: Commonwealth of Independent States (former USSR) (CIS)
Launch site: TYURATAM MISSILE AND SPACE COMPLEX (TTMTR)

Note: This is a ROCKET BODY
Your satellite tracking list
Your tracking list is empty




NASA's NSSDC Master Catalog

Two Line Element Set (TLE):
1 32280U 07052F   25182.99759547 -.00000075  00000-0 -14473-3 0  9998
2 32280  65.3661  84.7501 5599823 236.9048  56.8560  4.21911107178240
Source of the keplerian elements: AFSPC